Tracking 33679 objects as of 4-Apr-2026
HD Live streaming from Space Station
objects crossing your sky now
Track ARTEMIS 2 (INTEGRITY)

FORMOSAT7-5/COSMIC2-5

Track FORMOSAT7-5/COSMIC2-5 now!
10-day predictions


NORAD ID: 44358
Int'l Code: 2019-036V
Perigee: 585.4 km
Apogee: 586.2 km
Inclination: 24.0 °
Period: 96.2 minutes
Semi major axis: 6956 km
RCS: Unknown
Launch date: June 25, 2019
Source: Taiwan (Republic of China) (ROC)
Launch site: AIR FORCE EASTERN TEST RANGE (AFETR)
Your satellite tracking list
Your tracking list is empty




NASA's NSSDC Master Catalog

Two Line Element Set (TLE):
1 44358U 19036V   26093.91568356  .00005485  00000-0  44876-3 0  9990
2 44358  23.9997  48.9701 0000601  66.8305 293.2259 14.96187016371218
Source of the keplerian elements: AFSPC